Tracking 19192 objects as of 19-Jun-2018
HD Live streaming from Space Station
objects crossing your sky now

METEOR 1-11 DEB

Track METEOR 1-11 DEB now!
10-day predictions


NORAD ID: 36305
Int'l Code: 1972-022D
Perigee: 753.6 km
Apogee: 777.2 km
Inclination: 81.2 °
Period: 100.0 minutes
Semi major axis: 7136 km
RCS: 0.003 m2 (small)
Launch date: March 30, 1972
Source: Commonwealth of Independent States (former USSR) (CIS)
Launch site: PLESETSK MISSILE AND SPACE COMPLEX (PKMTR)

Note: This is SATELLITE DEBRIS
aabbcc
Your satellite tracking list
Your tracking list is empty




NASA's NSSDC Master Catalog

Two Line Element Set (TLE):
1 36305U 72022D   18169.18961201 +.00000933 +00000-0 +29122-3 0  9997
2 36305 081.2036 139.9340 0016549 345.4355 014.6353 14.40077993514626
Source of the keplerian elements: AFSPC